Regional Weather Roundup
Issued by NWS Green Bay, WI

Home | Current Version | Previous Version | Graphics & Text | Print | Product List | Glossary Off
Versions: 1 2 3 4 5 6 7 8 9 10 11 12 13 14 15 16 17 18 19 20 21 22 23 24 25 26 27 28 29 30 31 32 33 34 35 36 37 38 39 40 41 42 43 44 45 46 47 48 49 50

000
ASUS43 KGRB 252300
RWRGRB

NORTH-CENTRAL AND NORTHEAST WISCONSIN REGIONAL WEATHER ROUNDUP
NATIONAL WEATHER SERVICE GREEN BAY WI
600 PM CDT THU AUG 25 2016

WIZ005-009-010>012-018-019-260000-
NORTH CENTRAL WISCONSIN

CITY           SKY/WX    TMP DP  RH WIND       PRES   REMARKS
IRONWOOD       MOSUNNY   69  52  54 W18G25    29.99R
MANITOWISH WTR NOT AVBL
ARBOR VITAE    NOT AVBL
EAGLE RIVER    NOT AVBL
LAND O LAKES   NOT AVBL
RHINELANDER    SUNNY     73  55  53 W14G22    30.00R
PHILLIPS       MOSUNNY   70  55  58 W7G17     30.01R
ANTIGO         NOT AVBL
TOMAHAWK       NOT AVBL
MERRILL        NOT AVBL
$$

WIZ013-073-260000-
NORTHEAST WISCONSIN

CITY           SKY/WX    TMP DP  RH WIND       PRES   REMARKS
IRON MOUNTAIN  MOSUNNY   77  55  46 W15G22    29.93S
MARINETTE      SUNNY    N/A N/A N/A SW6       29.95R
$$

WIZ017-030-035>037-045-260000-
CENTRAL WISCONSIN

CITY           SKY/WX    TMP DP  RH WIND       PRES   REMARKS
MEDFORD        NOT AVBL
WAUSAU         SUNNY     74  55  51 W12       30.00R
MOSINEE        MOSUNNY   73  57  56 MISG      30.02S
MARSHFIELD     SUNNY     74  57  55 W12       30.02S
WISC RAPIDS    MOSUNNY   78  60  53 W14G22    30.03S
STEVENS POINT  NOT AVBL
WAUPACA        NOT AVBL
SHAWANO        NOT AVBL
CLINTONVILLE   SUNNY     77  54  44 W9G17     29.99S
WAUTOMA        SUNNY     78  61  55 W8        30.03R
$$

WIZ038-039-048-051-260000-
FOX VALLEY

CITY           SKY/WX    TMP DP  RH WIND       PRES   REMARKS
NWS GREEN BAY  SUNNY     77  64  64 SW9       29.98S
APPLETON       MOSUNNY   77  57  50 SW9       29.99S
OSHKOSH        SUNNY     77  59  53 W7        30.01R
FOND DU LAC    CLOUDY    77  59  53 W8G17     30.02S
$$

WIZ022-050-052-260000-
EAST CENTRAL WISCONSIN

CITY           SKY/WX    TMP DP  RH WIND       PRES   REMARKS
EPHRAIM        NOT AVBL
WASHINGTON ISL NOT AVBL
STURGEON BAY   SUNNY     77  62  59 SW10      29.97R
MANITOWOC      NOT AVBL
SHEBOYGAN      CLOUDY    77  58  51 W9        30.01R
$$

LMZ563-521-522-541>543-260000-
LAKESHORE

STATION/POSITION TIME  TEMP    WIND        PRES    VSBY  WAVE
                       AIR SEA DIR/SP/G                  HT/PER
                 (UTC) (F)     (DEG/KT/KT) (MB)    (MI)  (FT/S)
SHEBOYGAN LKSHOR 2200   79     270/  8/ 14 1015.0F
KEWAUNEE LKSHORE 2200   78     250/  6/  9 1014.5F
NORTHPORT PIER   2200   79     220/  3/  9 1013.2F
N MID LAKE BUOY  2150   71 70  200/ 16/ 19 1013.0F         1/ 5
S GREEN BAY BUOY 2230   76 73  240/ 10/ 12 1014.1F
CHAMBERS ISLAND  2200   77     180/  4/  9 1013.2F
MENOMINEE LKSHOR 2200   79     240/ 10/ 15 1013.0F
$$




USA.gov is the U.S. government's official web portal to all federal, state and local government web resources and services.